Weather History for Hebron, NE

Change the Weather History Date:

Thursday, November 21, 2013

  Actual Average Record
Temperature  
Mean Temperature 32 °F -  
Max Temperature 42 °F 47 °F 73 °F (2012)
Min Temperature 22 °F 25 °F 4 °F (1964)
Degree Days  
Heating Degree Days 33    
Moisture  
Dew Point 21 °F    
Average Humidity 71    
Maximum Humidity 80    
Minimum Humidity 65    
Precipitation  
Precipitation 0.00 in - - ()
Sea Level Pressure  
Sea Level Pressure 30.28 in    
Wind  
Wind Speed 17 mph (North)    
Max Wind Speed 23 mph    
Max Gust Speed 38 mph    
Visibility 10 miles    
Events Snow    
Averages and records for this station are not official NWS values.
T = Trace of Precipitation, MM = Missing Value Source: NWS Daily Summary

Daily Weather History Graph

Daily Weather History Graph

Search for Another Location

Airport:

Trip Planner

Search our weather history database for the weather conditions in past years. The results will help you decide how hot, cold, wet, or windy it might be!

Date:

Astronomy

Nov. 21, 2013 Rise Set
Actual Time 7:23 AM CST 5:09 PM CST
Civil Twilight 6:53 AM CST 5:38 PM CST
Nautical Twilight 6:20 AM CST 6:11 PM CST
Astronomical Twilight 5:47 AM CST 6:44 PM CST
Moon 8:47 PM CST (11/21) 10:30 AM CST (11/21)
Length of Visible Light 10h 45m
Length of Day
9h 46m
Waning Gibbous, 85% of the Moon is Illuminated
Nov 21
Waning Gibbous
Nov 25
Last Quarter
Dec 2
New
Dec 9
First Quarter
Dec 17
Full

Hourly Weather History & Observations

Time (CST) Temp. Windchill Dew Point Humidity Pressure Visibility Wind Dir Wind Speed Gust Speed Precip Events Conditions
12:15 AM 42.1 °F 36.1 °F 34.2 °F 74% 29.93 in 10.0 mi NNW 10.4 mph - N/A   Clear
12:35 AM 42.1 °F 35.7 °F 34.0 °F 73% 29.94 in 10.0 mi North 11.5 mph - N/A   Clear
12:55 AM 41.9 °F 34.6 °F 33.8 °F 73% 29.96 in 10.0 mi North 13.8 mph 18.4 mph N/A   Clear
1:15 AM 41.5 °F 33.5 °F 33.6 °F 73% 29.97 in 10.0 mi North 16.1 mph 23.0 mph N/A   Clear
1:35 AM 41.2 °F 33.4 °F 32.9 °F 72% 29.98 in 10.0 mi North 15.0 mph 20.7 mph N/A   Clear
1:55 AM 40.5 °F 32.1 °F 32.0 °F 72% 30.00 in 10.0 mi North 16.1 mph 24.2 mph N/A   Clear
2:15 AM 39.4 °F 31.1 °F 32.0 °F 75% 30.02 in 10.0 mi North 15.0 mph 23.0 mph N/A   Clear
2:35 AM 38.3 °F 28.1 °F 30.2 °F 73% 30.03 in 10.0 mi North 20.7 mph 29.9 mph N/A   Clear
2:55 AM 37.0 °F 27.4 °F 29.3 °F 74% 30.05 in 10.0 mi North 17.3 mph 28.8 mph N/A   Clear
3:15 AM 36.1 °F 26.2 °F 28.8 °F 75% 30.06 in 10.0 mi North 17.3 mph 21.9 mph N/A   Clear
3:35 AM 35.6 °F 25.5 °F 28.0 °F 74% 30.07 in 10.0 mi North 17.3 mph 25.3 mph N/A   Scattered Clouds
3:55 AM 34.5 °F 24.8 °F 26.6 °F 73% 30.08 in 10.0 mi North 15.0 mph 25.3 mph N/A   Overcast
4:15 AM 34.0 °F 23.4 °F 26.2 °F 73% 30.09 in 10.0 mi North 17.3 mph 23.0 mph N/A   Scattered Clouds
4:35 AM 34.0 °F 23.4 °F 25.7 °F 72% 30.10 in 10.0 mi North 17.3 mph 24.2 mph N/A   Scattered Clouds
4:55 AM 33.8 °F 24.3 °F 25.0 °F 70% 30.11 in 10.0 mi North 13.8 mph 26.5 mph N/A   Overcast
5:15 AM 33.4 °F 21.7 °F 23.9 °F 68% 30.12 in 10.0 mi North 20.7 mph 35.7 mph N/A   Overcast
5:35 AM 32.9 °F 21.6 °F 23.5 °F 68% 30.13 in 10.0 mi North 18.4 mph 28.8 mph N/A   Overcast
5:55 AM 32.5 °F 20.2 °F 22.6 °F 67% 30.15 in 10.0 mi North 21.9 mph 38.0 mph N/A   Overcast
6:15 AM 32.4 °F 20.6 °F 22.6 °F 67% 30.16 in 10.0 mi North 19.6 mph 27.6 mph N/A   Overcast
6:35 AM 32.0 °F 19.5 °F 21.9 °F 66% 30.17 in 10.0 mi North 21.9 mph 31.1 mph N/A   Overcast
6:55 AM 31.6 °F 21.2 °F 21.6 °F 66% 30.17 in 10.0 mi North 15.0 mph 29.9 mph N/A   Overcast
7:15 AM 31.3 °F 18.5 °F 21.2 °F 66% 30.17 in 10.0 mi NNE 21.9 mph 34.5 mph N/A   Overcast
7:35 AM 31.1 °F 18.6 °F 21.2 °F 67% 30.18 in 10.0 mi North 20.7 mph 28.8 mph N/A   Overcast
7:55 AM 29.8 °F 16.3 °F 19.6 °F 66% 30.19 in 10.0 mi North 23.0 mph 29.9 mph N/A   Overcast
8:15 AM 29.3 °F 15.9 °F 19.2 °F 66% 30.20 in 10.0 mi North 21.9 mph 33.4 mph N/A   Overcast
8:35 AM 28.8 °F 14.9 °F 18.9 °F 67% 30.21 in 10.0 mi North 23.0 mph 33.4 mph N/A   Overcast
8:55 AM 28.4 °F 14.4 °F 18.5 °F 66% 30.22 in 10.0 mi North 23.0 mph 32.2 mph N/A   Overcast
9:15 AM 28.6 °F 15.0 °F 18.5 °F 66% 30.23 in 10.0 mi North 21.9 mph 32.2 mph N/A   Overcast
9:35 AM 28.9 °F 16.1 °F 18.5 °F 65% 30.25 in 10.0 mi North 19.6 mph 27.6 mph N/A   Overcast
9:55 AM 28.8 °F 15.2 °F 18.9 °F 67% 30.27 in 10.0 mi North 21.9 mph 27.6 mph N/A   Overcast
10:15 AM 28.4 °F 14.7 °F 19.0 °F 68% 30.28 in 10.0 mi North 21.9 mph 28.8 mph N/A   Overcast
10:35 AM 28.0 °F 16.1 °F 19.9 °F 72% 30.28 in 10.0 mi North 16.1 mph 21.9 mph N/A   Overcast
10:55 AM 28.0 °F 15.3 °F 20.3 °F 73% 30.28 in 10.0 mi North 18.4 mph 25.3 mph N/A   Overcast
11:15 AM 27.5 °F 15.4 °F 20.3 °F 74% 30.29 in 10.0 mi North 16.1 mph 26.5 mph N/A   Overcast
11:35 AM 27.5 °F 15.0 °F 20.1 °F 74% 30.29 in 10.0 mi North 17.3 mph 26.5 mph N/A   Overcast
11:55 AM 27.5 °F 15.9 °F 20.7 °F 75% 30.29 in 7.0 mi North 15.0 mph 27.6 mph N/A   Overcast
12:15 PM 27.5 °F 13.5 °F 20.5 °F 75% 30.29 in 10.0 mi North 21.9 mph 26.5 mph N/A   Overcast
12:35 PM 27.1 °F 14.1 °F 18.9 °F 71% 30.29 in 10.0 mi North 18.4 mph 29.9 mph N/A   Overcast
12:55 PM 27.1 °F 13.8 °F 18.5 °F 70% 30.30 in 10.0 mi North 19.6 mph 27.6 mph N/A   Overcast
1:15 PM 27.1 °F 15.9 °F 19.2 °F 72% 30.30 in 10.0 mi North 13.8 mph 24.2 mph N/A   Overcast
1:35 PM 26.8 °F 12.9 °F 18.3 °F 70% 30.30 in 10.0 mi North 20.7 mph 28.8 mph N/A   Overcast
1:55 PM 26.6 °F 12.0 °F 18.0 °F 70% 30.29 in 10.0 mi North 23.0 mph 31.1 mph N/A   Overcast
2:15 PM 26.6 °F 12.4 °F 17.6 °F 69% 30.29 in 10.0 mi North 21.9 mph 29.9 mph N/A   Overcast
2:35 PM 26.4 °F 14.0 °F 17.2 °F 68% 30.30 in 10.0 mi North 16.1 mph 31.1 mph N/A   Overcast
2:55 PM 26.6 °F 14.3 °F 17.1 °F 67% 30.31 in 10.0 mi North 16.1 mph 33.4 mph N/A   Overcast
3:15 PM 26.4 °F 12.1 °F 16.9 °F 67% 30.32 in 10.0 mi North 21.9 mph 27.6 mph N/A   Overcast
3:35 PM 26.4 °F 12.5 °F 17.4 °F 69% 30.33 in 10.0 mi North 20.7 mph 26.5 mph N/A   Overcast
3:55 PM 26.2 °F 13.4 °F 16.7 °F 67% 30.35 in 10.0 mi North 17.3 mph 25.3 mph N/A   Overcast
4:15 PM 26.2 °F 13.8 °F 16.7 °F 67% 30.36 in 10.0 mi North 16.1 mph 28.8 mph N/A   Overcast
4:35 PM 26.2 °F 13.4 °F 16.7 °F 67% 30.38 in 10.0 mi North 17.3 mph 25.3 mph N/A   Overcast
4:55 PM 26.2 °F 12.2 °F 16.5 °F 67% 30.38 in 10.0 mi North 20.7 mph 26.5 mph N/A   Overcast
5:15 PM 26.2 °F 12.6 °F 16.7 °F 67% 30.39 in 10.0 mi North 19.6 mph 27.6 mph N/A   Overcast
5:35 PM 25.7 °F 12.7 °F 16.7 °F 69% 30.40 in 10.0 mi North 17.3 mph 28.8 mph N/A   Overcast
5:55 PM 25.5 °F 12.4 °F 17.2 °F 71% 30.41 in 10.0 mi North 17.3 mph 26.5 mph N/A   Overcast
6:15 PM 25.2 °F 10.8 °F 16.9 °F 71% 30.42 in 10.0 mi North 20.7 mph 26.5 mph N/A   Overcast
6:55 PM 23.9 °F 11.7 °F 17.4 °F 76% 30.46 in 10.0 mi North 13.8 mph 26.5 mph N/A   Overcast
7:15 PM 23.7 °F 9.3 °F 16.9 °F 75% 30.47 in 10.0 mi North 19.6 mph 28.8 mph N/A   Overcast
7:35 PM 23.5 °F 10.3 °F 17.1 °F 76% 30.49 in 10.0 mi North 16.1 mph 23.0 mph N/A   Overcast
7:55 PM 23.4 °F 10.6 °F 17.4 °F 78% 30.49 in 4.0 mi North 15.0 mph 23.0 mph N/A Snow Light Snow
8:15 PM 23.4 °F 9.6 °F 17.6 °F 79% 30.49 in 4.0 mi North 17.3 mph 25.3 mph N/A Snow Light Snow
8:35 PM 23.0 °F 8.3 °F 17.6 °F 80% 30.50 in 3.0 mi North 19.6 mph 26.5 mph N/A Snow Light Snow
8:55 PM 23.0 °F 10.1 °F 17.8 °F 80% 30.50 in 3.0 mi North 15.0 mph 23.0 mph N/A Snow Light Snow
9:15 PM 23.0 °F 9.6 °F 16.7 °F 77% 30.52 in 7.0 mi North 16.1 mph 25.3 mph N/A Snow Light Snow
9:35 PM 23.0 °F 11.1 °F 17.4 °F 79% 30.53 in 10.0 mi North 12.7 mph 23.0 mph N/A   Overcast
9:55 PM 23.0 °F 9.6 °F 17.1 °F 78% 30.54 in 10.0 mi North 16.1 mph 24.2 mph N/A Snow Light Snow
10:15 PM 23.0 °F 8.3 °F 16.7 °F 77% 30.55 in 10.0 mi NNW 19.6 mph 29.9 mph N/A   Overcast
10:35 PM 23.0 °F 10.1 °F 16.3 °F 76% 30.56 in 7.0 mi North 15.0 mph 26.5 mph N/A Snow Light Snow
10:55 PM 22.8 °F 8.1 °F 15.8 °F 74% 30.57 in 10.0 mi North 19.6 mph 26.5 mph N/A   Overcast
11:15 PM 22.8 °F 8.9 °F 15.6 °F 74% 30.58 in 10.0 mi North 17.3 mph 27.6 mph N/A   Overcast
11:35 PM 22.6 °F 10.1 °F 15.6 °F 74% 30.58 in 10.0 mi North 13.8 mph 26.5 mph N/A   Overcast
11:55 PM 22.6 °F 10.7 °F 15.6 °F 74% 30.58 in 10.0 mi NNW 12.7 mph 24.2 mph N/A   Overcast